This demonstration page uses our WeatherBlox Daily Observations layout. Learn more.

Left ArrowRight Arrow

41.55636, -103.73856

Hourly Observations for August 20, 2021

Temp ( °F °C ) Dew Point ( °F °C ) Humidity (%) Winds ( mph kmh ) Pressure ( in mb ) Visibility ( mi km ) Precip ( " mm )
12:58 am 00:58 Mostly Cloudy 60 15.6 56 13.1 85 85 WNW 3 6 29.83 1010 10 16 0.00 0.00
1:58 am 01:58 Mostly Cloudy 59 14.8 55 12.7 87 87 SW 3 6 29.80 1009 10 16 0.00 0.00
2:58 am 02:58 Mostly Cloudy 60 15.6 55 12.7 83 83 W 6 9 29.79 1009 10 16 0.00 0.00
3:58 am 03:58 Mostly Cloudy 60 15.7 55 13 84 84 W 16 26 29.84 1011 10 16 0.00 0.00
4:58 am 04:58 Windy with Rain Showers Likely 53 11.9 47 8.3 79 79 W 21 33 29.85 1011 10 16 0.01 0.25
5:58 am 05:58 Cloudy with Rain 52 11 49 9.4 90 90 W 8 13 29.85 1011 8 13 0.09 2.29
6:58 am 06:58 Mostly Cloudy 52 10.9 49 9.2 89 89 W 9 15 29.87 1012 10 16 0.01 0.25
7:58 am 07:58 Partly Cloudy 54 12.1 49 9.2 83 83 SW 9 15 29.85 1011 10 16 0.00 0.00
8:58 am 08:58 Mostly Sunny 59 15.2 45 7 58 58 W 13 20 29.84 1011 10 16 0.00 0.00
9:58 am 09:58 Sunny 65 18.3 41 5.1 42 42 WNW 15 24 29.83 1010 10 16 0.00 0.00
10:58 am 10:58 Sunny 67 19.7 38 3.6 35 35 WNW 21 33 29.85 1011 10 16 0.00 0.00
11:58 am 11:58 Mostly Cloudy 71 21.5 37 2.8 29 29 W 25 41 29.86 1011 10 16 0.00 0.00
12:58 pm 12:58 Mostly Sunny 72 22.1 39 4 31 31 WNW 28 44 29.86 1011 10 16 0.00 0.00
1:58 pm 13:58 Sunny 72 22.2 40 4.2 31 31 NW 33 54 29.87 1011 10 16 0.00 0.00
2:58 pm 14:58 Sunny 73 22.6 39 3.9 30 30 WNW 30 48 29.87 1011 10 16 0.00 0.00
3:58 pm 15:58 Sunny 73 22.6 37 3 28 28 WNW 30 48 29.86 1011 10 16 0.00 0.00
4:58 pm 16:58 Mostly Cloudy 71 21.9 38 3.3 30 30 NW 22 35 29.90 1012 10 16 0.00 0.00
5:58 pm 17:58 Mostly Sunny 71 21.7 40 4.2 32 32 NNW 20 31 29.92 1013 10 16 0.00 0.00
6:58 pm 18:58 Sunny 68 20.1 40 4.5 36 36 NNW 16 26 29.94 1014 10 16 0.00 0.00
7:58 pm 19:58 Clear 61 16.3 42 5.5 49 49 N 10 17 29.97 1015 10 16 0.00 0.00
8:58 pm 20:58 Clear 59 15 42 5.7 54 54 NW 5 7 30.00 1016 10 16 0.00 0.00
9:58 pm 21:58 Clear 55 12.8 43 6.2 64 64 NNW 10 17 29.98 1015 10 16 0.00 0.00
10:58 pm 22:58 Clear 54 12.2 43 6.2 67 67 NW 7 11 30.00 1016 10 16 0.00 0.00
11:58 pm 23:58 Clear 53 11.8 43 6.2 69 69 Calm 29.99 1016 10 16 0.00 0.00

Powered by AerisWeather